UMBRA-11

导读

UMBRA-11是美国Umbra公司于2025年11月28日发射的合成孔径雷达(SAR)卫星,属于Umbra公司高分辨率SAR卫星星座的组成部分。该卫星搭载先进SAR传感器,可提供优于25厘米分辨率的微波图像,具备全天候、全天时观测能力,能穿透云雾、雨雪捕捉地表目标细节,将服务于地质勘探、环境监测、动态监测等领域,进一步增强Umbra星座对地观测能力。

基本信息
目录编号:
66748
目录名称:
UMBRA-11
国际标识:
2025-276CL
轨道中心:
EARTH
卫星名称:
UMBRA-11
卫星全名:
UMBRA-11
卫星状态:
在轨 (已飞行280 天)
发射日期:
2025-11-28 UTC
国别 :
美国 (US)
星等 :
--
轨道信息
数据来源 国际轨道数据
星历时间: 2026-09-03T18:31:45+0800
1天前
查看轨道信息
半长轴: 6855.042km
偏心率: 0.0003006
轨道倾角: 97.413°
近地点辐角 75.903°
升交点赤经 320.724°
平近点角 284.254°
近地点: 474.844km
远地点: 478.966km
周期: 94.140分钟
每日圈数: 15.296344
详细信息
使用方式:
暂无
2D轨道图
3D轨道图
轨道高度分析图
轨道倾角分析图
轨道综合分析图
查看轨道综合分析图
交会数据列表
事件ID 空间交会对象 最接近时刻(TCA) 交会距离 交会风险概率(CRP) 交会风险指数(CRI) 操作
CDM_260906-052606-197606-674821
UMBRA-11 (66748)
2026-09-06T
05:26:15+0000
0.883 km
远距离
3.329935E-5 中风险 0.65
CDM_260903-102105-909306-674822
UMBRA-11 (66748)
2026-09-03T
10:21:26+0000
0.880 km
远距离
3.129613E-5 中风险 0.65
CDM_260829-110606-328106-674821
UMBRA-11 (66748)
2026-08-29T
11:06:06+0000
1.406 km
极远距离
5.314491E-6 低风险 0.5
CDM_260829-093306-312206-674821
UMBRA-11 (66748)
2026-08-29T
09:33:04+0000
1.884 km
极远距离
3.264773E-6 低风险 0.45
CDM_260906-004105-629006-674821
UMBRA-11 (66748)
2026-09-06T
00:41:39+0000
1.743 km
极远距离
3.011334E-6 低风险 0.45
CDM_260905-134205-963206-674821
UMBRA-11 (66748)
2026-09-05T
13:42:47+0000
2.382 km
极远距离
1.814324E-6 低风险 0.4
CDM_260905-011006-299406-674821
UMBRA-11 (66748)
2026-09-05T
01:10:40+0000
2.471 km
极远距离
1.620015E-6 低风险 0.39
CDM_260906-100606-433206-674821
UMBRA-11 (66748)
2026-09-06T
10:06:07+0000
2.590 km
极远距离
1.583165E-6 低风险 0.39
CDM_260905-103606-214906-674821
UMBRA-11 (66748)
2026-09-05T
10:36:06+0000
2.471 km
极远距离
1.571366E-6 低风险 0.39
CDM_260905-220205-844506-674821
UMBRA-11 (66748)
2026-09-05T
22:02:32+0000
2.633 km
极远距离
1.535866E-6 低风险 0.39